| time (UTC) | temp F | wind direction | speed knots | gust knots | rain 1hr in | rain 24hr in | rain mn in | humidity % | barometer mb |
| 20260503002115 | 43 | 29 | 2.6 | 2.6 | 0.00 | 0.00 | 0.00 | 61 | 1011.9 |
| 20260503001611 | 43 | 42 | 2.6 | 3.5 | 0.00 | 0.00 | 0.00 | 59 | 1011.9 |
| 20260503001109 | 43 | 45 | 0.9 | 3.5 | 0.00 | 0.00 | 0.00 | 60 | 1011.7 |
| 20260503000606 | 43 | 39 | 1.7 | 2.6 | 0.00 | 0.00 | 0.00 | 58 | 1011.6 |
| 20260503000103 | 43 | 40 | 2.6 | 3.5 | 0.00 | 0.00 | 0.00 | 58 | 1011.7 |
| 20260502235559 | 44 | 355 | 2.6 | 3.5 | 0.00 | 0.00 | 0.00 | 58 | 1011.6 |
| 20260502235057 | 44 | 38 | 2.6 | 3.5 | 0.00 | 0.00 | 0.00 | 55 | 1011.5 |
| 20260502234553 | 44 | 11 | 3.5 | 5.2 | 0.00 | 0.00 | 0.00 | 55 | 1011.5 |
| 20260502234051 | 44 | 28 | 2.6 | 2.6 | 0.00 | 0.00 | 0.00 | 55 | 1011.4 |
| 20260502233551 | 44 | 32 | 2.6 | 2.6 | 0.00 | 0.00 | 0.00 | 56 | 1011.5 |
| 20260502233049 | 45 | 23 | 3.5 | 3.5 | 0.00 | 0.00 | 0.00 | 55 | 1011.2 |
| 20260502232544 | 45 | 54 | 2.6 | 4.3 | 0.00 | 0.00 | 0.00 | 56 | 1011.3 |
| 20260502232042 | 45 | 59 | 2.6 | 2.6 | 0.00 | 0.00 | 0.00 | 55 | 1011.2 |
| 20260502231539 | 45 | 31 | 1.7 | 3.5 | 0.00 | 0.00 | 0.00 | 53 | 1011.1 |
| 20260502231037 | 45 | 12 | 3.5 | 3.5 | 0.00 | 0.00 | 0.00 | 55 | 1011.2 |
| 20260502230535 | 45 | 20 | 3.5 | 3.5 | 0.00 | 0.00 | 0.00 | 54 | 1011.1 |
| 20260502230033 | 45 | 52 | 2.6 | 3.5 | 0.00 | 0.00 | 0.00 | 56 | 1011.2 |
| 20260502225528 | 45 | 32 | 1.7 | 2.6 | 0.00 | 0.00 | 0.00 | 56 | 1011.2 |
| 20260502225026 | 45 | 20 | 1.7 | 2.6 | 0.00 | 0.00 | 0.00 | 57 | 1010.9 |
| 20260502224522 | 45 | 29 | 0.9 | 1.7 | 0.00 | 0.00 | 0.00 | 62 | 1011.2 |
| 20260502224019 | 45 | 337 | 0.9 | 1.7 | 0.00 | 0.00 | 0.00 | 63 | 1010.7 |
| 20260502223517 | 45 | 79 | 1.7 | 2.6 | 0.00 | 0.00 | 0.00 | 60 | 1010.9 |
| 20260502223015 | 45 | 89 | 4.3 | 4.3 | 0.00 | 0.00 | 0.00 | 60 | 1010.7 |
| 20260502222512 | 45 | 67 | 1.7 | 1.7 | 0.00 | 0.00 | 0.00 | 59 | 1010.8 |
| 20260502222008 | 45 | 87 | 2.6 | 2.6 | 0.00 | 0.00 | 0.00 | 59 | 1011.2 |
| 20260502221503 | 45 | 339 | 0.0 | 1.7 | 0.00 | 0.00 | 0.00 | 57 | 1011.2 |
| 20260502221001 | 45 | 79 | 0.9 | 1.7 | 0.00 | 0.00 | 0.00 | 59 | 1011.3 |
| 20260502220456 | 45 | 82 | 1.7 | 1.7 | 0.00 | 0.00 | 0.00 | 60 | 1010.9 |
| 20260502215953 | 45 | 78 | 1.7 | 2.6 | 0.00 | 0.00 | 0.00 | 62 | 1011.1 |
| 20260502215451 | 45 | 52 | 1.7 | 1.7 | 0.00 | 0.00 | 0.00 | 62 | 1011.2 |
| 20260502214948 | 45 | 44 | 1.7 | 2.6 | 0.00 | 0.00 | 0.00 | 61 | 1010.9 |
| 20260502214444 | 44 | 27 | 1.7 | 3.5 | 0.00 | 0.00 | 0.00 | 63 | 1010.9 |
| 20260502213942 | 44 | 71 | 1.7 | 2.6 | 0.00 | 0.00 | 0.00 | 67 | 1010.9 |
| 20260502213438 | 45 | 36 | 2.6 | 3.5 | 0.00 | 0.00 | 0.00 | 63 | 1011.1 |
| 20260502212937 | 45 | 17 | 3.5 | 4.3 | 0.00 | 0.00 | 0.00 | 62 | 1010.9 |
| 20260502212435 | 45 | 12 | 3.5 | 4.3 | 0.00 | 0.00 | 0.00 | 57 | 1010.9 |
| 20260502211932 | 46 | 37 | 2.6 | 3.5 | 0.00 | 0.00 | 0.00 | 54 | 1010.7 |
| 20260502211428 | 46 | 24 | 1.7 | 3.5 | 0.00 | 0.00 | 0.00 | 53 | 1010.6 |
| 20260502210926 | 46 | 26 | 2.6 | 3.5 | 0.00 | 0.00 | 0.00 | 56 | 1010.9 |
| 20260502210422 | 46 | 291 | 0.9 | 7.8 | 0.00 | 0.00 | 0.00 | 54 | 1010.5 |
| 20260502205919 | 46 | 279 | 5.2 | 8.7 | 0.00 | 0.00 | 0.00 | 52 | 1010.5 |
| 20260502205415 | 46 | 319 | 2.6 | 4.3 | 0.00 | 0.00 | 0.00 | 52 | 1010.5 |
| 20260502204913 | 47 | 32 | 3.5 | 3.5 | 0.00 | 0.00 | 0.00 | 52 | 1010.7 |
| 20260502204410 | 47 | 280 | 0.9 | 2.6 | 0.00 | 0.00 | 0.00 | 53 | 1010.5 |
| 20260502203908 | 47 | 106 | 0.0 | 2.6 | 0.00 | 0.00 | 0.00 | 51 | 1010.7 |
| 20260502203405 | 47 | 14 | 1.7 | 3.5 | 0.00 | 0.00 | 0.00 | 50 | 1010.7 |
| 20260502202900 | 47 | 29 | 1.7 | 3.5 | 0.00 | 0.00 | 0.00 | 51 | 1010.7 |
| 20260502202358 | 47 | 48 | 3.5 | 3.5 | 0.00 | 0.00 | 0.00 | 51 | 1010.8 |
| 20260502201855 | 47 | 31 | 2.6 | 2.6 | 0.00 | 0.00 | 0.00 | 53 | 1010.7 |
| 20260502201351 | 47 | 20 | 2.6 | 3.5 | 0.00 | 0.00 | 0.00 | 50 | 1010.9 |
| 20260502200848 | 47 | 92 | 1.7 | 2.6 | 0.00 | 0.00 | 0.00 | 51 | 1010.7 |
| 20260502200343 | 47 | 48 | 1.7 | 3.5 | 0.00 | 0.00 | 0.00 | 49 | 1010.8 |
| 20260502195842 | 47 | 60 | 3.5 | 4.3 | 0.00 | 0.00 | 0.00 | 52 | 1010.9 |
| 20260502195338 | 48 | 77 | 4.3 | 4.3 | 0.00 | 0.00 | 0.00 | 49 | 1010.8 |
| 20260502194835 | 48 | 21 | 2.6 | 4.3 | 0.00 | 0.00 | 0.00 | 51 | 1010.9 |
| 20260502194332 | 48 | 78 | 1.7 | 3.5 | 0.00 | 0.00 | 0.00 | 48 | 1011.1 |
| 20260502193828 | 48 | 6 | 2.6 | 4.3 | 0.00 | 0.00 | 0.00 | 47 | 1011.3 |
| 20260502193325 | 47 | 67 | 1.7 | 2.6 | 0.00 | 0.00 | 0.00 | 49 | 1011.4 |
| 20260502192821 | 47 | 65 | 5.2 | 6.1 | 0.00 | 0.00 | 0.00 | 49 | 1011.3 |
| 20260502192318 | 48 | 339 | 2.6 | 3.5 | 0.00 | 0.00 | 0.00 | 49 | 1011.3 |
| 20260502191815 | 48 | 333 | 2.6 | 2.6 | 0.00 | 0.00 | 0.00 | 48 | 1011.2 |
| 20260502191313 | 48 | 151 | 2.6 | 3.5 | 0.00 | 0.00 | 0.00 | 49 | 1011.3 |
| 20260502190810 | 48 | 38 | 1.7 | 2.6 | 0.00 | 0.00 | 0.00 | 44 | 1011.4 |
| 20260502190307 | 48 | 101 | 0.0 | 3.5 | 0.00 | 0.00 | 0.00 | 45 | 1011.3 |
| 20260502185802 | 48 | 103 | 2.6 | 3.5 | 0.00 | 0.00 | 0.00 | 47 | 1011.3 |
| 20260502185258 | 49 | 96 | 1.7 | 3.5 | 0.00 | 0.00 | 0.00 | 48 | 1011.4 |
| 20260502184755 | 49 | 66 | 1.7 | 1.7 | 0.00 | 0.00 | 0.00 | 44 | 1011.5 |
| 20260502184251 | 48 | 109 | 0.9 | 2.6 | 0.00 | 0.00 | 0.00 | 45 | 1011.7 |
| 20260502183748 | 47 | 74 | 4.3 | 5.2 | 0.00 | 0.00 | 0.00 | 45 | 1011.6 |
| 20260502183244 | 47 | 278 | 1.7 | 5.2 | 0.00 | 0.00 | 0.00 | 45 | 1011.6 |
| 20260502182739 | 48 | 31 | 0.9 | 3.5 | 0.00 | 0.00 | 0.00 | 45 | 1011.7 |
| 20260502182235 | 48 | 356 | 2.6 | 3.5 | 0.00 | 0.00 | 0.00 | 46 | 1011.8 |
| 20260502181732 | 48 | 12 | 0.9 | 7.8 | 0.00 | 0.00 | 0.00 | 46 | 1011.6 |
| 20260502181231 | 48 | 75 | 4.3 | 4.3 | 0.00 | 0.00 | 0.00 | 48 | 1011.7 |
| 20260502180728 | 48 | 352 | 1.7 | 5.2 | 0.00 | 0.00 | 0.00 | 44 | 1011.3 |
| 20260502180226 | 48 | 44 | 3.5 | 6.1 | 0.00 | 0.00 | 0.00 | 45 | 1011.6 |
| 20260502170150 | 48 | 44 | 2.6 | 3.5 | 0.00 | 0.00 | 0.00 | 50 | 1011.7 |
| 20260502164136 | 50 | 113 | 2.6 | 2.6 | 0.00 | 0.00 | 0.00 | 49 | 1011.7 |
| 20260502163632 | 48 | 326 | 1.7 | 3.5 | 0.00 | 0.00 | 0.00 | 50 | 1011.6 |
| 20260502163129 | 49 | 31 | 3.5 | 4.3 | 0.00 | 0.00 | 0.00 | 48 | 1011.9 |
| 20260502162626 | 50 | 73 | 4.3 | 6.1 | 0.00 | 0.00 | 0.00 | 44 | 1011.7 |
| 20260502162123 | 48 | 12 | 1.7 | 5.2 | 0.00 | 0.00 | 0.00 | 45 | 1011.9 |
| 20260502161620 | 48 | 86 | 3.5 | 4.3 | 0.00 | 0.00 | 0.00 | 45 | 1011.8 |
| 20260502161117 | 48 | 70 | 6.1 | 7.0 | 0.00 | 0.00 | 0.00 | 47 | 1011.7 |
| 20260502160615 | 50 | 340 | 2.6 | 3.5 | 0.00 | 0.00 | 0.00 | 47 | 1011.7 |
| 20260502160113 | 50 | 88 | 0.0 | 7.8 | 0.00 | 0.00 | 0.00 | 41 | 1011.9 |
| 20260502152028 | 48 | 41 | 3.5 | 7.0 | 0.00 | 0.00 | 0.00 | 44 | 1012.2 |
| 20260502151524 | 49 | 18 | 5.2 | 6.1 | 0.00 | 0.00 | 0.00 | 43 | 1012.1 |
| 20260502151022 | 51 | 26 | 3.5 | 5.2 | 0.00 | 0.00 | 0.00 | 48 | 1012.2 |
| 20260502150519 | 49 | 6 | 4.3 | 5.2 | 0.00 | 0.00 | 0.00 | 46 | 1011.8 |
| 20260502130404 | 44 | 1 | 1.7 | 7.8 | 0.00 | 0.00 | 0.00 | 68 | 1012.5 |
| 20260502123347 | 43 | 61 | 4.3 | 6.1 | 0.00 | 0.00 | 0.00 | 78 | 1012.2 |
| 20260502122844 | 42 | 36 | 1.7 | 5.2 | 0.00 | 0.00 | 0.00 | 76 | 1012.4 |
| 20260502122339 | 42 | 29 | 4.3 | 5.2 | 0.00 | 0.00 | 0.00 | 82 | 1012.5 |
| 20260502121838 | 41 | 38 | 2.6 | 5.2 | 0.00 | 0.00 | 0.00 | 84 | 1012.5 |
| 20260502121335 | 42 | 34 | 2.6 | 5.2 | 0.00 | 0.00 | 0.00 | 84 | 1012.2 |
| 20260502120832 | 41 | 24 | 2.6 | 4.3 | 0.00 | 0.00 | 0.00 | 85 | 1012.6 |
| 20260502120328 | 40 | 36 | 1.7 | 3.5 | 0.00 | 0.00 | 0.00 | 86 | 1012.4 |
| 20260502115826 | 41 | 286 | 1.7 | 4.3 | 0.00 | 0.00 | 0.00 | 86 | 1012.4 |
| 20260502115323 | 41 | 355 | 1.7 | 3.5 | 0.00 | 0.00 | 0.00 | 88 | 1012.2 |
| 20260502114820 | 42 | 313 | 0.9 | 4.3 | 0.00 | 0.00 | 0.00 | 89 | 1012.4 |
| 20260502114316 | 41 | 305 | 1.7 | 3.5 | 0.00 | 0.00 | 0.00 | 90 | 1012.2 |
| 20260502113813 | 41 | 11 | 1.7 | 4.3 | 0.00 | 0.00 | 0.00 | 91 | 1012.4 |
| 20260502113311 | 41 | 358 | 0.9 | 2.6 | 0.00 | 0.00 | 0.00 | 98 | 1012.2 |
| 20260502112809 | 41 | 95 | 3.5 | 3.5 | 0.00 | 0.00 | 0.00 | 99 | 1012.5 |
| 20260502112306 | 41 | 99 | 0.0 | 2.6 | 0.00 | 0.00 | 0.00 | 99 | 1012.4 |
| 20260502111803 | 40 | 86 | 1.7 | 1.7 | 0.00 | 0.00 | 0.00 | 99 | 1012.2 |
| 20260502111301 | 38 | 94 | 0.9 | 1.7 | 0.00 | 0.00 | 0.00 | 99 | 1012.2 |
| 20260502110758 | 38 | 71 | 1.7 | 1.7 | 0.00 | 0.00 | 0.00 | 99 | 1012.4 |
| 20260502110256 | 37 | 41 | 1.7 | 2.6 | 0.00 | 0.00 | 0.00 | 99 | 1012.3 |
| 20260502105754 | 38 | 57 | 1.7 | 2.6 | 0.00 | 0.00 | 0.00 | 99 | 1012.1 |
| 20260502105250 | 38 | 41 | 1.7 | 1.7 | 0.00 | 0.00 | 0.00 | 99 | 1012.1 |
| 20260502104748 | 38 | 8 | 0.0 | 0.9 | 0.00 | 0.00 | 0.00 | 99 | 1012.0 |
| 20260502104245 | 37 | 50 | 0.9 | 1.7 | 0.00 | 0.00 | 0.00 | 99 | 1012.0 |
| 20260502103743 | 38 | 31 | 1.7 | 1.7 | 0.00 | 0.00 | 0.00 | 99 | 1012.0 |
| 20260502103240 | 38 | 72 | 1.7 | 2.6 | 0.00 | 0.00 | 0.00 | 99 | 1011.9 |
| 20260502102737 | 38 | 42 | 1.7 | 1.7 | 0.00 | 0.00 | 0.00 | 99 | 1011.7 |
| 20260502102233 | 38 | 83 | 1.7 | 2.6 | 0.00 | 0.00 | 0.00 | 99 | 1011.7 |
| 20260502101731 | 38 | 37 | 1.7 | 2.6 | 0.00 | 0.00 | 0.00 | 99 | 1011.5 |
| 20260502101229 | 39 | 70 | 2.6 | 2.6 | 0.00 | 0.00 | 0.00 | 99 | 1011.6 |
| 20260502100727 | 38 | 44 | 1.7 | 2.6 | 0.00 | 0.00 | 0.00 | 99 | 1011.7 |
| 20260502100225 | 38 | 49 | 2.6 | 4.3 | 0.00 | 0.00 | 0.00 | 99 | 1011.7 |
| 20260502091159 | 38 | 72 | 1.7 | 1.7 | 0.00 | 0.00 | 0.00 | 99 | 1011.1 |
| 20260502090657 | 38 | 60 | 0.9 | 1.7 | 0.00 | 0.00 | 0.00 | 99 | 1011.1 |
| 20260502090154 | 39 | 46 | 0.9 | 1.7 | 0.00 | 0.00 | 0.00 | 99 | 1010.9 |
| 20260502071055 | 39 | 25 | 0.0 | 1.7 | 0.00 | 0.00 | 0.00 | 99 | 1010.6 |
| 20260502070553 | 39 | 55 | 1.7 | 1.7 | 0.00 | 0.00 | 0.00 | 99 | 1010.6 |
| 20260502070050 | 39 | 8 | 0.9 | 1.7 | 0.00 | 0.00 | 0.00 | 99 | 1010.4 |
| 20260502065549 | 39 | 74 | 0.9 | 1.7 | 0.00 | 0.00 | 0.00 | 99 | 1010.7 |
| 20260502065046 | 39 | 38 | 0.9 | 1.7 | 0.00 | 0.00 | 0.00 | 99 | 1010.6 |
| 20260502064545 | 39 | 85 | 1.7 | 1.7 | 0.00 | 0.00 | 0.00 | 99 | 1010.6 |
| 20260502064041 | 39 | 85 | 0.9 | 1.7 | 0.00 | 0.00 | 0.00 | 99 | 1010.5 |
| 20260502063539 | 40 | 45 | 1.7 | 2.6 | 0.00 | 0.00 | 0.00 | 99 | 1010.4 |
| 20260502063037 | 40 | 38 | 1.7 | 1.7 | 0.00 | 0.00 | 0.00 | 99 | 1010.6 |
| 20260502062534 | 40 | 39 | 1.7 | 2.6 | 0.00 | 0.00 | 0.00 | 99 | 1010.6 |
| 20260502062032 | 40 | 51 | 1.7 | 1.7 | 0.00 | 0.00 | 0.00 | 98 | 1010.6 |
| 20260502061530 | 40 | 53 | 1.7 | 2.6 | 0.00 | 0.00 | 0.00 | 98 | 1010.6 |
| 20260502061026 | 40 | 36 | 2.6 | 2.6 | 0.00 | 0.00 | 0.00 | 98 | 1010.8 |
| 20260502060521 | 40 | 29 | 1.7 | 2.6 | 0.00 | 0.00 | 0.00 | 98 | 1010.9 |
| 20260502060018 | 40 | 13 | 2.6 | 3.5 | 0.00 | 0.00 | 0.00 | 98 | 1010.6 |
| 20260502055516 | 40 | 18 | 2.6 | 3.5 | 0.00 | 0.00 | 0.00 | 98 | 1010.5 |
| 20260502055015 | 40 | 48 | 1.7 | 3.5 | 0.00 | 0.00 | 0.00 | 98 | 1010.8 |
| 20260502054513 | 40 | 73 | 1.7 | 2.6 | 0.00 | 0.00 | 0.00 | 99 | 1010.7 |
| 20260502054009 | 40 | 111 | 0.0 | 3.5 | 0.00 | 0.00 | 0.00 | 99 | 1010.5 |
| 20260502053506 | 40 | 73 | 2.6 | 2.6 | 0.00 | 0.00 | 0.00 | 99 | 1010.5 |
| 20260502053005 | 40 | 78 | 3.5 | 3.5 | 0.00 | 0.00 | 0.00 | 99 | 1010.1 |
| 20260502052502 | 41 | 67 | 2.6 | 2.6 | 0.00 | 0.00 | 0.00 | 99 | 1010.6 |
| 20260502052000 | 41 | 28 | 3.5 | 3.5 | 0.00 | 0.00 | 0.00 | 99 | 1010.5 |
| 20260502051458 | 41 | 23 | 3.5 | 4.3 | 0.00 | 0.00 | 0.00 | 99 | 1010.3 |
| 20260502050955 | 41 | 18 | 2.6 | 4.3 | 0.00 | 0.00 | 0.00 | 99 | 1010.4 |
| 20260502050451 | 41 | 25 | 2.6 | 3.5 | 0.00 | 0.00 | 0.00 | 99 | 1010.6 |
| 20260502045949 | 41 | 32 | 1.7 | 2.6 | 0.00 | 0.00 | 0.00 | 99 | 1010.6 |
| 20260502045445 | 42 | 48 | 1.7 | 3.5 | 0.00 | 0.00 | 0.00 | 99 | 1010.5 |
| 20260502044942 | 42 | 40 | 2.6 | 2.6 | 0.00 | 0.00 | 0.00 | 99 | 1010.7 |
| 20260502044438 | 42 | 61 | 1.7 | 2.6 | 0.00 | 0.00 | 0.00 | 99 | 1010.6 |
| 20260502043935 | 42 | 60 | 1.7 | 2.6 | 0.00 | 0.00 | 0.00 | 99 | 1010.7 |
| 20260502043433 | 42 | 75 | 1.7 | 2.6 | 0.00 | 0.00 | 0.00 | 99 | 1010.6 |
| 20260502042932 | 42 | 74 | 1.7 | 1.7 | 0.00 | 0.00 | 0.00 | 99 | 1010.6 |
| 20260502042430 | 42 | 79 | 0.9 | 1.7 | 0.00 | 0.00 | 0.00 | 99 | 1010.5 |
| 20260502041927 | 42 | 68 | 1.7 | 1.7 | 0.00 | 0.00 | 0.00 | 99 | 1010.6 |
| 20260502041425 | 42 | 60 | 1.7 | 2.6 | 0.00 | 0.00 | 0.00 | 99 | 1010.3 |
| 20260502040921 | 42 | 66 | 1.7 | 2.6 | 0.00 | 0.00 | 0.00 | 99 | 1010.4 |
| 20260502040418 | 43 | 38 | 1.7 | 2.6 | 0.00 | 0.00 | 0.00 | 99 | 1010.4 |
| 20260502035914 | 43 | 41 | 1.7 | 2.6 | 0.00 | 0.13 | 0.13 | 99 | 1010.4 |
| 20260502035411 | 43 | 58 | 1.7 | 2.6 | 0.00 | 0.13 | 0.13 | 99 | 1010.3 |
| 20260502034908 | 43 | 76 | 2.6 | 2.6 | 0.00 | 0.13 | 0.13 | 99 | 1010.2 |
| 20260502034407 | 43 | 302 | 0.0 | 0.9 | 0.00 | 0.13 | 0.13 | 99 | 1010.5 |
| 20260502033905 | 43 | 32 | 0.9 | 1.7 | 0.02 | 0.13 | 0.13 | 99 | 1010.0 |
| 20260502033402 | 43 | 75 | 0.9 | 1.7 | 0.02 | 0.13 | 0.13 | 99 | 1010.0 |
| 20260502032859 | 43 | 72 | 0.9 | 2.6 | 0.00 | 0.13 | 0.13 | 99 | 1010.0 |
| 20260502032354 | 43 | 74 | 1.7 | 1.7 | 0.02 | 0.13 | 0.13 | 99 | 1010.2 |
| 20260502031853 | 43 | 45 | 1.7 | 2.6 | 0.02 | 0.13 | 0.13 | 99 | 1010.2 |
| 20260502031351 | 43 | 60 | 0.9 | 3.5 | 0.02 | 0.13 | 0.13 | 99 | 1010.3 |
| 20260502030848 | 43 | 116 | 1.7 | 3.5 | 0.05 | 0.13 | 0.13 | 99 | 1010.1 |
| 20260502030347 | 44 | 62 | 2.6 | 3.5 | 0.07 | 0.12 | 0.12 | 99 | 1010.5 |
| 20260502025844 | 44 | 69 | 0.9 | 1.7 | 0.05 | 0.11 | 0.11 | 99 | 1010.5 |
| 20260502025341 | 44 | 46 | 1.7 | 1.7 | 0.00 | 0.11 | 0.11 | 99 | 1010.2 |
| 20260502024839 | 44 | 55 | 1.7 | 1.7 | 0.02 | 0.11 | 0.11 | 99 | 1010.3 |
| 20260502024337 | 44 | 55 | 0.9 | 1.7 | 0.02 | 0.11 | 0.11 | 99 | 1010.3 |
| 20260502023834 | 44 | 45 | 1.7 | 1.7 | 0.00 | 0.10 | 0.10 | 99 | 1010.2 |
| 20260502023332 | 44 | 46 | 1.7 | 1.7 | 0.00 | 0.10 | 0.10 | 99 | 1010.3 |
| 20260502022830 | 44 | 55 | 1.7 | 1.7 | 0.00 | 0.10 | 0.10 | 99 | 1010.3 |
| 20260502022326 | 44 | 75 | 1.7 | 1.7 | 0.00 | 0.10 | 0.10 | 99 | 1010.3 |
| 20260502021822 | 44 | 62 | 1.7 | 1.7 | 0.02 | 0.10 | 0.10 | 99 | 1010.5 |
| 20260502021320 | 44 | 66 | 1.7 | 1.7 | 0.05 | 0.10 | 0.10 | 99 | 1010.5 |
| 20260502020817 | 44 | 60 | 1.7 | 1.7 | 0.02 | 0.10 | 0.10 | 99 | 1010.3 |
| 20260502020315 | 44 | 40 | 1.7 | 1.7 | 0.05 | 0.09 | 0.09 | 99 | 1010.5 |
| 20260502015811 | 44 | 46 | 0.0 | 0.9 | 0.02 | 0.09 | 0.09 | 99 | 1010.4 |
| 20260502015308 | 44 | 52 | 1.7 | 1.7 | 0.02 | 0.09 | 0.09 | 99 | 1010.2 |
| 20260502014806 | 44 | 27 | 0.9 | 1.7 | 0.02 | 0.09 | 0.09 | 99 | 1010.2 |
| 20260502014303 | 44 | 36 | 1.7 | 2.6 | 0.00 | 0.08 | 0.08 | 99 | 1010.2 |
| 20260502013758 | 44 | 37 | 1.7 | 2.6 | 0.00 | 0.08 | 0.08 | 99 | 1010.1 |
| 20260502013254 | 44 | 46 | 1.7 | 1.7 | 0.02 | 0.08 | 0.08 | 99 | 1010.2 |
| 20260502012751 | 44 | 61 | 1.7 | 2.6 | 0.02 | 0.08 | 0.08 | 99 | 1010.0 |
| 20260502012249 | 44 | 74 | 1.7 | 1.7 | 0.00 | 0.08 | 0.08 | 99 | 1010.3 |
| 20260502011746 | 44 | 50 | 1.7 | 2.6 | 0.02 | 0.08 | 0.08 | 99 | 1010.2 |
| 20260502011242 | 44 | 62 | 1.7 | 1.7 | 0.02 | 0.08 | 0.08 | 99 | 1010.2 |
| 20260502010740 | 44 | 53 | 1.7 | 1.7 | 0.00 | 0.07 | 0.07 | 99 | 1010.2 |
| 20260502010235 | 44 | 63 | 1.7 | 1.7 | 0.02 | 0.07 | 0.07 | 99 | 1010.1 |
| 20260502005733 | 44 | 45 | 1.7 | 2.6 | 0.05 | 0.07 | 0.07 | 99 | 1010.2 |
| 20260502005231 | 44 | 49 | 2.6 | 2.6 | 0.02 | 0.07 | 0.07 | 99 | 1010.1 |
| 20260502004727 | 44 | 69 | 1.7 | 1.7 | 0.02 | 0.07 | 0.07 | 99 | 1010.0 |
| 20260502004224 | 44 | 55 | 1.7 | 2.6 | 0.05 | 0.07 | 0.07 | 98 | 1010.1 |
| 20260502003721 | 44 | 73 | 1.7 | 1.7 | 0.02 | 0.06 | 0.06 | 98 | 1010.0 |
| 20260502003219 | 44 | 53 | 1.7 | 1.7 | 0.02 | 0.06 | 0.06 | 98 | 1010.0 |
| 20260502002714 | 44 | 58 | 1.7 | 1.7 | 0.02 | 0.06 | 0.06 | 98 | 1010.1 |